Dewpoint
57 57 57 57 57 57 57 57 58 58 58 59 58 58 58 58 58 58 58 58 59 59 59 59 59 59 60 60 60 61 59 55 51 47 43 39 46 57 62 62 65 64 58 36 33 29 26 33 32 37 37 36 41 40 40 46 48 42 38 37 33 33 35 39 38 42 42 45 47 50 51 53 52 54 57 59 56 54 55 55 56 58 58 58 59 59 61 62
57 57 57 57 57 57 57 57 58 58 58 58 58 58 57 58 58 58 58 58 59 59 59 59 59 59 59 60 60 60 57 54 48 48 44 45 60 62 65 65 65 63 50 30 29 27 25 29 35 37 37 37 39 41 43 45 45 42 40 34 33 38 38 43 43 44 46 46 49 50 53 53 53 55 55 55 54 55 54 54 56 56 57 58 59 60 60 60
57 57 57 57 57 57 57 57 57 58 58 58 58 58 57 57 58 58 58 59 59 59 59 59 59 59 59 60 60 59 55 52 45 26 25 53 59 62 65 65 65 62 34 29 28 27 28 33 37 37 40 38 40 41 45 46 43 46 39 37 39 41 42 47 49 44 50 50 50 51 53 54 54 53 57 55 54 54 53 52 53 54 55 56 58 59 59 59
58 55 55 56 56 56 56 56 56 56 56 57 58 57 57 57 57 59 59 59 59 59 59 59 59 60 60 60 60 56 55 34 24 25 29 55 63 62 63 65 65 59 33 34 31 32 33 36 38 39 42 42 43 45 41 41 44 43 43 39 39 44 42 44 52 50 51 51 51 51 53 50 50 53 56 55 53 52 53 54 53 54 55 56 57 58 58 58
58 55 55 55 55 55 55 55 55 56 56 56 56 57 57 56 57 58 59 59 59 59 59 59 59 60 60 60 60 56 33 26 25 32 35 58 66 63 64 65 65 45 35 39 37 40 35 37 41 46 43 40 42 42 42 49 46 43 41 43 43 46 45 48 52 52 51 51 50 51 50 49 52 55 55 52 49 50 52 55 55 55 56 57 57 58 58 57
56 55 55 54 54 54 55 55 55 55 55 55 55 56 57 56 56 57 59 59 60 60 59 59 60 60 60 59 55 55 24 24 29 29 63 64 66 65 65 66 61 39 35 38 36 40 41 46 43 42 44 41 40 41 42 50 48 44 43 45 47 46 46 50 52 52 50 49 50 49 49 51 52 53 53 52 50 52 55 57 56 56 57 58 58 58 57 57
54 54 54 54 54 54 54 54 54 54 55 55 55 55 55 56 56 56 58 60 59 60 60 60 60 60 60 59 52 27 21 20 31 32 66 67 66 66 66 63 56 38 36 35 37 38 46 47 47 47 46 44 43 41 42 47 47 43 40 43 45 47 48 50 51 50 48 48 47 49 51 51 52 50 52 53 55 56 58 57 57 58 59 58 57 56 57 57
55 54 54 54 54 53 53 54 54 54 54 54 54 54 54 54 56 55 57 59 59 60 60 60 59 60 59 55 44 37 37 25 23 50 68 66 64 62 56 45 42 38 35 34 39 44 44 43 42 49 46 42 42 43 44 45 46 42 43 45 45 47 49 51 51 49 47 47 49 49 49 50 50 50 52 53 56 57 58 58 58 58 58 57 56 56 56 56
54 54 54 53 53 53 53 53 53 53 53 54 54 53 54 54 54 55 55 59 60 60 60 60 60 60 58 50 40 26 25 34 39 54 60 57 55 47 41 39 39 34 36 37 38 37 43 43 45 45 39 45 44 45 46 42 39 46 42 45 46 47 48 50 49 48 48 48 50 49 49 50 51 52 51 53 56 57 58 58 58 57 56 56 57 57 56 56
53 53 53 53 53 53 52 53 53 53 53 53 53 53 53 53 54 55 55 57 60 61 60 60 61 58 55 38 32 27 28 32 41 51 54 54 48 41 40 42 36 34 32 35 41 41 41 43 42 44 46 46 47 44 48 44 40 46 44 44 44 47 47 47 47 48 48 48 50 50 50 51 51 50 46 52 57 58 57 57 56 56 56 57 57 57 57 57
53 53 53 53 53 53 52 53 53 53 52 52 52 52 52 53 53 54 55 58 60 61 61 60 59 57 49 39 32 27 31 35 40 46 51 48 43 37 39 41 35 33 32 37 38 41 41 42 45 46 45 39 47 44 45 41 44 44 43 43 44 45 46 46 47 47 47 46 50 50 50 50 48 49 49 53 57 57 56 56 56 56 56 57 57 56 57 57
53 54 54 53 53 53 53 52 53 52 52 52 52 52 52 53 54 55 55 58 60 61 60 59 58 57 52 45 33 30 39 35 40 43 45 42 38 37 40 41 36 35 34 34 37 40 41 42 46 42 39 44 41 47 43 45 43 43 43 40 41 42 43 45 45 46 45 44 49 50 42 42 44 47 50 55 57 56 55 55 55 55 55 56 56 57 56 57
56 56 56 55 54 53 54 54 54 52 52 52 51 52 53 53 55 56 56 59 60 60 59 59 58 56 46 40 41 41 45 45 38 40 39 36 36 36 39 41 38 37 35 36 38 43 43 46 42 46 45 45 42 40 42 45 43 44 44 43 40 39 39 42 45 45 43 45 48 43 33 37 43 46 50 56 57 56 55 55 55 55 55 55 56 56 57 56
55 55 55 55 54 53 54 54 54 53 52 51 51 53 53 54 55 56 59 59 60 59 58 58 57 52 42 36 36 40 43 42 36 36 39 40 33 34 37 38 38 37 38 37 39 44 46 47 44 43 47 44 39 47 44 46 44 38 41 43 38 38 36 39 44 44 42 45 48 42 35 36 41 42 49 55 56 55 55 55 55 55 54 55 55 55 56 56
55 55 54 54 53 53 54 54 54 52 52 52 52 53 53 55 57 59 60 60 60 58 58 58 54 47 43 38 42 51 66 35 34 33 36 34 32 30 32 38 38 37 36 37 40 48 45 44 44 44 42 45 42 44 40 41 40 41 36 32 37 35 36 38 44 43 43 42 45 41 36 38 42 43 48 54 55 55 54 55 55 54 54 54 54 55 56 56
55 55 54 54 53 53 54 54 52 52 51 51 53 54 56 57 59 60 60 60 59 58 57 50 49 50 41 37 38 54 43 41 40 35 34 32 31 27 33 35 38 39 38 38 43 44 44 43 41 40 46 40 40 37 35 37 35 38 34 33 34 35 35 37 43 44 43 42 43 42 35 39 40 43 46 53 54 54 53 53 53 53 54 54 55 55 55 55
54 54 54 53 53 53 54 53 52 52 51 51 54 55 57 58 58 58 59 59 58 57 58 52 50 51 34 34 40 38 37 39 39 35 34 32 31 31 34 36 37 39 41 42 42 42 42 41 44 40 41 41 41 36 32 31 31 32 37 34 38 33 35 33 38 43 42 44 42 41 39 40 42 43 45 51 53 53 52 52 52 53 53 54 54 54 54 54
54 55 54 54 53 53 53 53 54 53 51 50 54 55 55 57 58 57 56 58 59 57 54 57 52 41 31 35 32 34 36 35 37 36 32 33 32 33 33 34 39 40 40 40 41 40 41 41 39 37 37 37 37 35 31 26 30 32 34 33 34 33 34 33 38 40 40 40 41 41 41 40 40 41 44 49 52 51 52 52 52 52 52 52 53 53 53 54
54 54 54 53 53 53 53 53 53 52 50 51 54 55 54 55 53 52 51 53 42 38 33 44 38 31 26 30 34 35 36 36 35 35 35 32 35 35 35 37 38 37 37 37 37 39 38 39 38 37 34 36 35 34 32 32 34 34 36 35 35 32 31 32 35 37 42 39 39 40 40 41 41 40 43 47 50 51 51 51 50 50 51 51 51 52 51 52
54 54 54 53 53 52 52 52 52 51 50 49 44 46 45 34 30 28 39 47 39 34 29 29 39 35 35 35 34 35 37 35 33 33 35 43 32 32 33 33 30 34 35 35 36 38 37 35 34 34 33 34 35 35 34 36 35 36 37 35 33 30 31 32 33 35 42 39 38 38 40 40 39 39 41 45 49 50 50 49 48 48 48 49 50 50 51 51
54 53 53 53 53 52 51 51 51 50 50 47 44 25 28 32 31 31 31 32 35 37 36 35 33 33 30 34 35 35 32 34 34 32 32 44 33 32 31 31 28 29 30 34 35 36 36 35 35 35 34 34 34 35 36 37 37 36 34 34 32 31 30 31 32 39 40 38 37 37 38 38 38 38 41 45 47 48 49 49 48 47 46 47 47 48 49 50
54 53 53 53 53 52 51 50 50 50 51 46 38 33 28 32 34 35 32 31 34 32 32 33 35 34 37 35 34 36 35 33 33 34 32 33 31 28 29 30 27 27 30 34 33 34 35 34 33 33 35 34 33 35 34 34 35 33 32 33 31 31 34 34 35 39 39 39 35 36 36 36 36 37 40 43 45 47 48 48 48 47 45 45 46 46 47 48
54 53 53 53 52 51 50 50 49 50 41 36 33 35 37 32 35 37 32 32 31 32 30 30 31 33 34 39 40 38 36 34 29 30 30 31 30 29 28 28 30 27 31 32 29 33 30 29 34 34 33 32 34 35 34 33 34 33 31 29 29 32 32 29 32 36 36 36 32 35 35 36 37 38 41 42 44 45 45 45 46 45 44 44 44 46 46 47
53 53 53 52 52 51 50 49 49 41 34 34 34 35 37 34 34 39 35 33 30 33 31 30 31 31 31 30 31 37 34 32 31 29 34 30 28 30 27 26 26 26 26 30 28 29 26 24 30 33 31 31 32 35 34 33 32 32 31 31 32 32 33 32 31 34 36 34 34 34 35 35 37 34 35 37 41 42 42 43 43 43 43 46 47 48 49 48
53 53 52 52 52 51 49 48 39 35 36 34 34 36 38 35 37 40 38 33 28 28 35 24 34 31 31 31 36 30 30 30 30 30 31 29 27 28 28 28 26 24 24 27 27 28 27 27 27 29 32 32 31 33 33 32 31 31 30 30 29 30 30 32 33 33 32 32 34 35 28 29 34 34 35 37 37 39 41 40 41 42 43 47 46 47 49 52
53 52 52 52 51 50 49 38 32 36 35 30 30 33 34 34 36 42 37 28 24 27 25 20 29 21 29 25 27 25 22 20 24 28 29 29 32 27 24 24 26 25 23 24 24 26 24 25 24 23 27 31 30 29 31 30 30 29 27 30 30 29 31 32 32 31 29 28 34 36 29 27 32 32 34 36 36 37 39 39 40 41 44 46 46 47 49 50
52 52 51 51 50 50 33 32 34 37 29 23 30 35 33 33 41 43 29 25 17 24 25 22 21 20 24 24 22 23 20 20 22 26 27 34 26 25 22 23 21 21 23 26 22 19 24 21 18 22 24 28 29 28 29 30 28 29 30 29 30 30 30 32 31 31 31 34 35 35 33 27 27 31 36 38 36 36 36 37 39 40 44 46 47 48 49 50
52 51 51 51 50 50 42 41 38 34 32 29 35 34 33 35 45 37 26 9 5 23 27 26 21 24 21 22 21 20 22 22 18 19 25 27 23 22 23 19 19 17 17 14 14 17 23 12 13 24 28 26 26 27 29 30 27 28 27 28 28 30 31 31 31 32 31 32 28 32 33 28 27 31 35 36 33 34 34 36 37 40 44 47 47 48 49 50
51 51 51 51 50 50 47 45 40 35 37 37 36 34 34 45 36 27 25 11 19 29 27 28 22 20 19 20 20 20 18 21 18 21 21 23 22 21 21 21 19 17 17 15 14 14 14 13 11 20 24 22 26 28 30 29 27 27 33 34 34 34 34 31 31 31 30 27 25 30 32 28 28 30 33 34 33 34 35 35 37 40 43 46 47 47 48 49
50 50 50 50 49 43 41 45 42 40 38 38 36 35 44 40 31 25 11 6 31 22 23 22 19 18 18 16 17 18 18 18 20 18 19 22 20 19 19 21 18 18 15 26 18 12 11 29 28 25 22 22 25 19 30 29 26 28 30 29 29 30 32 35 33 31 29 21 26 29 32 31 25 29 32 32 33 34 35 37 39 42 43 46 47 47 48 48
50 50 50 50 46 43 41 35 35 36 38 37 39 42 39 32 29 19 10 19 22 23 28 23 23 20 18 18 17 18 18 19 16 17 17 18 17 17 18 16 20 21 29 30 22 23 20 12 20 16 34 20 19 21 21 27 29 29 29 28 27 29 29 28 28 30 23 21 26 29 32 29 26 28 31 34 37 38 36 35 37 39 41 44 46 47 48 49
49 49 50 49 48 47 38 32 32 36 38 43 43 37 29 22 27 15 18 27 16 24 26 24 25 19 24 19 15 16 15 14 17 15 13 17 21 17 18 20 24 13 22 25 21 22 18 10 11 13 39 16 21 21 22 27 27 28 28 27 26 21 25 20 23 21 20 23 26 33 30 28 28 28 33 34 33 35 37 35 36 38 40 43 45 47 48 49
49 49 50 49 49 47 46 41 41 41 41 48 40 33 25 24 17 25 23 22 19 29 26 26 22 25 27 27 25 19 15 16 16 14 15 16 17 16 18 17 19 18 14 28 20 19 21 22 16 11 11 23 21 21 24 25 25 26 26 26 24 19 16 16 18 21 23 23 26 31 32 26 29 29 31 31 32 34 37 37 38 39 40 41 44 46 48 49
49 49 47 47 48 47 47 49 45 41 42 48 34 29 24 15 20 43 24 25 24 29 27 26 30 30 26 27 26 15 22 18 13 13 15 19 15 18 19 20 20 16 24 28 19 21 14 18 20 10 7 13 20 23 23 25 26 26 27 24 25 23 20 15 19 17 20 23 26 29 25 25 24 27 30 30 31 34 36 37 40 41 42 43 44 47 48 49
49 48 47 46 48 47 46 46 44 47 45 36 31 27 21 22 25 26 27 31 28 30 24 29 28 27 27 32 31 32 19 23 15 14 17 13 18 20 20 16 19 24 24 15 23 23 17 19 17 17 17 11 14 16 23 24 22 20 25 23 23 22 28 17 23 24 24 24 24 26 24 28 28 31 35 33 32 34 38 37 41 41 44 45 46 47 48 49
47 42 46 45 48 48 47 46 44 44 38 32 26 20 22 23 21 26 25 32 29 24 28 26 29 28 28 33 34 33 22 19 17 13 15 15 18 19 23 20 15 18 15 20 27 18 18 21 20 24 17 13 10 20 18 25 23 26 23 24 26 27 26 22 21 27 26 24 20 23 27 29 29 27 30 31 31 31 34 36 38 40 44 45 45 47 48 49
42 45 42 45 46 49 47 46 44 42 35 30 25 21 27 28 25 28 37 23 27 32 29 22 25 28 28 26 29 34 30 20 18 13 15 16 17 15 15 14 17 17 15 18 23 26 20 21 25 18 19 17 16 14 21 24 26 23 22 24 26 28 27 24 17 18 18 16 19 25 25 25 24 24 31 29 30 30 32 34 37 41 45 44 45 47 48 49
45 44 47 48 47 47 47 45 43 39 33 29 22 40 34 22 28 27 32 22 21 23 28 24 27 31 31 28 27 29 29 24 28 13 18 21 16 18 13 14 14 15 17 17 13 20 25 16 21 20 17 16 25 23 22 21 25 25 24 25 20 17 17 19 22 14 14 14 14 22 25 26 26 27 29 27 29 31 31 34 38 40 44 44 45 48 49 51
44 44 37 40 44 47 45 44 45 34 31 27 25 21 29 23 25 26 24 24 23 25 23 24 25 28 32 30 30 35 35 26 29 25 22 22 12 16 12 13 14 16 18 16 16 27 31 19 21 24 15 17 21 21 18 22 22 27 23 23 31 25 24 17 22 23 21 12 14 18 23 23 27 28 30 28 29 31 30 35 35 37 41 43 45 48 49 51
44 38 37 42 47 47 45 50 45 34 28 24 29 27 23 27 26 27 26 22 20 20 25 24 29 29 32 31 33 26 34 31 29 30 21 32 13 18 17 20 22 18 20 19 18 31 21 28 13 22 23 16 13 20 18 22 23 24 24 22 26 28 30 24 27 21 16 15 16 17 16 24 28 30 31 29 29 31 30 32 34 36 40 44 46 48 50 51
44 39 40 45 48 48 50 47 41 36 30 35 31 27 34 25 29 30 27 24 20 21 20 30 34 21 27 23 23 34 32 37 38 31 21 20 13 20 25 21 29 21 21 20 23 29 25 23 16 23 19 16 22 28 23 23 27 26 24 25 26 21 18 16 16 27 26 21 17 16 18 25 29 33 30 30 31 31 30 31 34 36 40 44 47 49 50 51
37 33 37 43 48 51 47 41 40 41 38 36 28 36 32 42 28 27 26 25 22 19 21 22 24 22 26 26 26 32 33 32 35 32 30 25 24 17 14 26 26 20 18 20 21 28 25 30 27 17 20 22 26 22 28 24 30 31 29 25 32 28 25 23 15 17 25 26 26 27 20 22 33 37 34 33 32 31 31 34 35 37 41 45 47 49 51 52
36 32 37 41 49 49 42 37 39 37 38 39 38 36 35 36 35 32 30 27 21 19 21 22 21 22 26 22 31 31 36 28 35 32 30 26 25 17 16 31 26 24 27 26 24 32 53 23 22 23 29 32 31 32 37 36 34 31 33 36 30 26 29 24 24 26 21 25 21 20 17 24 32 38 42 40 38 34 35 36 35 37 43 47 48 49 51 52
39 40 42 46 49 48 40 32 34 34 38 42 40 38 35 35 32 31 27 26 22 24 20 27 24 21 21 30 37 33 38 27 32 32 30 30 28 28 28 34 30 30 18 23 22 35 18 21 24 21 21 22 27 30 30 33 36 31 29 34 37 36 34 33 31 30 25 26 26 22 16 22 31 40 40 39 36 34 34 36 38 38 44 47 48 50 51 52
41 42 43 45 47 47 41 39 37 33 38 40 40 40 40 39 31 34 33 29 27 22 23 23 21 29 26 36 35 37 41 33 30 32 31 32 31 34 32 37 37 32 31 38 46 26 24 28 27 20 17 14 14 15 20 22 24 29 37 34 34 34 29 24 20 25 19 23 27 20 19 25 29 36 37 36 35 35 36 37 40 41 43 47 48 50 51 52
37 32 37 41 44 44 44 45 43 40 38 38 35 39 40 37 38 38 30 29 28 25 22 23 20 24 24 24 24 27 28 34 32 31 30 32 34 31 32 37 38 49 58 56 49 37 30 34 31 27 21 21 23 27 32 34 28 25 28 32 31 34 34 30 27 23 21 25 25 26 29 26 27 30 33 35 36 34 34 37 38 39 42 46 48 50 51 52
38 36 34 35 40 42 41 42 42 42 38 41 34 40 38 39 40 39 29 30 29 24 23 22 22 25 26 24 27 28 28 30 34 33 33 32 34 32 36 36 34 47 57 50 48 35 33 25 29 29 28 26 30 31 33 34 29 30 29 29 34 33 33 29 22 23 29 28 21 31 33 28 28 31 33 37 37 36 36 36 38 40 42 44 47 49 53 51
29 32 41 41 37 34 35 35 41 42 41 41 38 40 37 38 38 36 39 39 40 42 38 32 43 39 29 27 33 26 32 34 35 32 33 35 36 38 29 31 32 39 46 33 43 34 31 24 28 28 28 34 36 35 38 35 31 32 33 32 31 34 30 26 26 28 31 22 25 30 33 29 29 31 31 35 36 36 35 36 38 40 42 45 47 48 50 50
35 36 39 42 38 41 41 42 43 42 35 40 40 35 36 36 35 36 38 40 40 41 39 35 40 40 41 42 34 29 34 30 29 34 37 34 37 35 31 30 31 37 37 38 36 37 29 24 29 29 28 29 32 34 35 33 33 33 33 34 35 34 31 32 30 33 32 28 33 33 34 31 32 31 32 34 38 38 39 41 43 41 42 44 45 47 49 50
32 33 32 39 41 41 42 41 39 36 31 34 29 33 33 36 33 32 34 40 34 36 35 39 35 34 40 42 38 40 41 36 35 32 39 39 36 35 32 34 32 33 35 35 37 32 28 21 35 32 26 27 30 33 34 35 32 29 31 34 36 35 34 34 34 35 36 29 36 34 34 34 36 37 36 38 41 43 41 41 40 41 42 44 44 46 48 49
42 38 39 36 36 37 41 39 36 34 29 30 31 34 33 35 33 32 33 38 35 34 34 33 33 35 42 38 37 40 40 38 37 39 42 39 34 38 34 37 35 34 35 34 37 35 34 22 33 30 22 25 28 33 33 34 33 30 30 31 33 32 28 32 30 36 29 29 33 31 29 31 35 38 41 41 40 39 39 40 41 42 43 44 44 44 46 48
43 41 41 39 32 41 35 38 33 33 28 32 35 35 32 32 29 31 35 39 37 35 36 35 35 38 39 38 37 37 37 36 36 36 36 38 40 41 38 38 37 35 37 34 39 32 34 30 24 24 25 21 27 34 33 31 28 24 26 30 33 35 33 34 36 37 35 34 30 26 29 33 34 41 38 38 38 38 39 41 41 43 43 43 43 44 45 47